DateTimeUTC,F1_A11,F1_S11,BsB_S11,BsG_S11,BsR_S11,BbsB_S11,BbsG_S11,BbsR_S11,BaB_A11,BaG_A11,BaR_A11,Tu_S11,T_S11,Uu_S11,U_S11,P_S11,T1_A11
2021-09-21T05:00:00Z,00000200,21000000,,,,,,,0000.07,-000.17,0000.19,18.4,25.4,,00.0,0656.1,31.0
2021-09-21T05:01:00Z,00000200,21000000,,,,,,,-000.30,-000.14,-000.35,18.3,25.4,,00.0,0656.1,30.9
2021-09-21T05:02:00Z,00000200,21000000,,,,,,,0000.15,0000.34,0000.16,18.3,25.4,,00.0,0656.1,30.9
2021-09-21T05:03:00Z,00000200,61000000,,,,,,,0000.60,0000.02,0000.36,18.3,25.4,,00.0,0656.1,30.9
2021-09-21T05:04:00Z,00000200,41000000,0002.55,0002.36,0001.41,0000.04,-000.00,0000.21,0000.68,0001.05,0000.58,18.2,25.0,,00.0,0657.0,30.9
2021-09-21T05:05:00Z,00000200,01000000,0002.71,0001.79,0001.15,0000.60,0000.09,0000.51,0000.61,0000.18,0000.68,18.2,24.9,,00.0,0657.1,30.9
2021-09-21T05:06:00Z,00000200,01000000,0003.13,0001.82,0001.41,0000.96,0000.22,0000.18,0001.12,0001.40,0000.71,18.2,24.9,,00.0,0657.1,30.9
2021-09-21T05:07:00Z,00000200,01000000,0003.16,0002.22,0001.21,0000.37,0000.19,-000.04,0001.16,0000.55,0000.44,18.2,24.9,,00.0,0657.1,30.9
2021-09-21T05:08:00Z,00000200,01000000,0003.54,0002.11,0001.02,0000.47,0000.03,0000.55,0000.60,0000.85,0000.56,18.3,24.9,,00.0,0657.1,30.9
2021-09-21T05:09:00Z,00000200,01000000,0003.07,0002.10,0001.36,0000.26,0000.53,0000.54,0000.64,0000.70,0000.84,18.4,25.0,,00.0,0657.1,30.9
2021-09-21T05:10:00Z,00000200,01000000,0003.28,0002.53,0001.12,0000.87,0000.28,0000.27,0000.74,0000.85,0000.20,18.4,25.0,,00.0,0657.1,30.9
2021-09-21T05:11:00Z,00000200,01000000,0003.38,0002.41,0000.88,0000.33,0000.36,0000.15,0000.72,0000.38,0000.53,18.4,25.0,,00.0,0657.1,30.9
2021-09-21T05:12:00Z,00000200,01000000,0003.49,0002.20,0001.06,0000.77,0000.36,0000.23,0001.91,0001.98,0001.50,18.5,25.0,,00.0,0657.1,30.9
2021-09-21T05:13:00Z,00000200,01000000,0003.84,0001.92,0001.33,0000.07,0000.09,0000.09,-000.23,-000.45,-000.19,18.5,25.0,,00.0,0657.1,30.9
2021-09-21T05:14:00Z,00000200,01000000,0003.44,0002.22,0001.53,0000.54,0000.67,0000.45,0000.64,0000.69,0000.40,18.6,25.0,,00.0,0657.1,31.0
2021-09-21T05:15:00Z,00000200,01000000,0002.56,0002.91,0001.36,0000.03,0000.52,0000.32,0000.80,0000.82,0000.51,18.6,25.1,,00.0,0657.1,31.0
2021-09-21T05:16:00Z,00000200,01000000,0003.26,0002.41,0001.41,0000.50,0000.14,0000.53,0000.72,0000.54,0000.80,18.7,25.1,,00.0,0657.1,31.0
2021-09-21T05:17:00Z,00000200,01000000,0003.54,0001.96,0001.19,0000.35,0000.44,0000.19,0000.62,0000.55,0000.59,18.7,25.1,,00.0,0657.0,31.0
2021-09-21T05:18:00Z,00000200,01000000,0003.16,0002.56,0001.26,0000.41,0000.65,0000.24,0000.59,0001.03,0000.38,18.7,25.1,,00.0,0657.0,31.0
2021-09-21T05:19:00Z,00000200,01000000,0003.48,0002.51,0001.02,-000.07,0000.43,0000.09,0000.87,0000.27,0000.63,18.7,25.1,,00.0,0657.0,31.0
2021-09-21T05:20:00Z,00000200,01000000,0003.57,0001.99,0001.16,0000.30,0000.09,0000.03,0000.67,0000.76,0000.32,18.7,25.1,,00.0,0657.0,31.0
2021-09-21T05:21:00Z,00000200,01000000,0003.21,0002.37,0001.04,0000.18,0000.16,0000.29,0000.51,0000.69,0000.55,18.7,25.1,,00.0,0657.0,31.0
2021-09-21T05:22:00Z,00000200,01000000,0003.26,0002.44,0001.09,0000.18,0000.27,0000.19,0000.80,0000.56,0000.37,18.7,25.1,,00.0,0657.0,30.9
2021-09-21T05:23:00Z,00000200,01000000,0002.72,0002.42,0001.08,0000.40,0000.42,-000.06,0000.65,0000.61,0000.68,18.8,25.1,,00.0,0657.0,31.0
2021-09-21T05:24:00Z,00000200,01000000,0002.59,0002.34,0001.20,0000.31,0000.31,0000.27,0000.93,0000.70,0000.53,18.8,25.1,,00.0,0657.0,31.0
2021-09-21T05:25:00Z,00000200,01000000,0003.74,0002.47,0001.39,0000.32,0000.25,0000.35,0000.45,0000.49,0000.20,18.9,25.1,,00.0,0657.0,31.0
2021-09-21T05:26:00Z,00000200,01000000,0003.31,0002.27,0001.21,0000.55,-000.01,0000.19,0000.76,0000.80,0000.73,18.9,25.2,,00.0,0657.0,31.0
2021-09-21T05:27:00Z,00000200,01000000,0002.84,0002.17,0001.45,0000.20,0000.29,0000.41,0000.64,0000.66,0000.02,18.9,25.2,,00.0,0657.0,31.0
2021-09-21T05:28:00Z,00000200,01000000,0003.60,0002.26,0001.02,0000.15,0000.40,0000.39,0000.36,0000.41,0000.79,18.8,25.2,,00.0,0656.9,31.0
2021-09-21T05:29:00Z,00000200,01000000,0003.00,0002.39,0001.74,0000.07,0000.37,0000.55,0000.60,0000.36,0000.25,18.7,25.1,,00.0,0656.9,31.0
2021-09-21T05:30:00Z,00000200,01000000,0003.32,0002.07,0001.39,0000.15,0000.38,0000.06,0000.59,0000.51,0000.54,18.6,25.1,,00.0,0656.9,30.9
2021-09-21T05:31:00Z,00000200,01000000,0003.45,0002.15,0001.20,0000.88,0000.24,0000.52,0000.40,0000.30,0000.06,18.5,25.0,,00.0,0656.9,30.9
2021-09-21T05:32:00Z,00000200,01000000,0003.07,0002.07,0001.38,0001.01,0000.41,0000.44,0000.49,0000.26,0000.35,18.4,25.0,,00.0,0656.9,30.9
2021-09-21T05:33:00Z,00000200,01000000,0003.19,0002.21,0001.27,0000.47,0000.12,0000.20,0000.63,0000.54,0000.78,18.3,24.9,,00.0,0656.9,30.9
2021-09-21T05:34:00Z,00000200,01000000,0003.03,0001.87,0001.16,0000.08,0000.16,0000.05,0000.89,0000.96,0000.24,18.2,24.9,,00.0,0656.9,30.9
2021-09-21T05:35:00Z,00000200,01000000,0003.11,0002.42,0001.37,0000.85,0000.16,0000.25,0001.18,0000.66,0000.94,18.2,24.8,,00.0,0656.9,30.9
2021-09-21T05:36:00Z,00000200,01000000,0003.22,0002.56,0001.29,0000.82,0000.38,0000.36,0000.75,0001.11,0000.57,18.2,24.8,,00.0,0656.9,30.9
2021-09-21T05:37:00Z,00000200,01000000,0003.39,0002.34,0001.26,0000.27,0000.11,0000.33,0000.70,0000.57,0000.48,18.3,24.8,,00.0,0656.9,30.9
2021-09-21T05:38:00Z,00000200,01000000,0003.32,0002.02,0001.35,0000.57,0000.06,0000.41,0000.81,0000.91,0000.83,18.3,24.9,,00.0,0656.9,30.9
2021-09-21T05:39:00Z,00000200,01000000,0002.77,0002.28,0001.04,0000.81,0000.34,0000.32,0000.84,0000.86,0000.30,18.4,24.9,,00.0,0656.9,30.9
2021-09-21T05:40:00Z,00000200,01000000,0003.38,0002.08,0001.46,0000.74,0000.34,0000.44,0000.46,0000.23,0000.55,18.4,24.9,,00.0,0656.9,30.9
2021-09-21T05:41:00Z,00000200,01000000,0002.79,0001.94,0001.45,0000.33,0000.36,0000.31,0000.73,0000.84,0000.47,18.5,24.9,,00.0,0656.9,31.0
2021-09-21T05:42:00Z,00000200,01000000,0003.26,0002.08,0001.39,0000.42,0000.37,0000.17,0000.59,0000.47,0001.02,18.5,25.0,,00.0,0656.9,31.0
2021-09-21T05:43:00Z,00000200,01000000,0002.70,0002.08,0001.48,0000.27,0000.29,0000.36,0000.93,0000.47,0000.28,18.6,25.0,,00.0,0656.9,31.0
2021-09-21T05:44:00Z,00000200,01000000,0002.63,0001.97,0000.95,-000.10,0000.07,0000.35,0000.60,0000.56,0000.40,18.6,25.0,,00.0,0656.9,31.0
2021-09-21T05:45:00Z,00000200,01000000,0002.56,0001.94,0001.29,0000.52,0000.12,0000.45,0000.50,0000.73,0000.48,18.7,25.0,,00.0,0656.9,31.0
2021-09-21T05:46:00Z,00000200,01000000,0002.28,0001.74,0001.05,0000.23,0000.45,0000.04,0000.72,0000.67,0000.39,18.7,25.0,,00.0,0657.0,31.0
2021-09-21T05:47:00Z,00000200,01000000,0002.39,0001.74,0001.31,0000.24,0000.15,0000.18,0000.43,0000.75,0000.44,18.7,25.0,,00.0,0657.0,31.0
2021-09-21T05:48:00Z,00000200,01000000,0002.42,0001.94,0000.97,-000.10,0000.23,0000.12,0000.75,-000.01,0000.31,18.7,25.0,,00.0,0656.9,31.0
2021-09-21T05:49:00Z,00000200,01000000,0003.13,0001.88,0000.88,0000.35,0000.20,0000.22,0000.39,0000.87,0000.42,18.7,25.0,,00.0,0656.9,31.0
2021-09-21T05:50:00Z,00000200,01000000,0002.56,0001.73,0001.63,0000.25,0000.07,0000.61,0000.66,0000.63,0000.57,18.7,25.0,,00.0,0656.9,31.0
2021-09-21T05:51:00Z,00000200,01000000,0002.78,0001.77,0001.12,0000.65,0000.57,0000.60,0000.72,0000.68,0000.50,18.7,25.0,,00.0,0656.9,31.0
2021-09-21T05:52:00Z,00000200,01000000,0002.94,0001.81,0001.13,0000.14,-000.00,0000.36,0000.61,0000.29,0000.29,18.7,25.0,,00.0,0656.9,31.0
2021-09-21T05:53:00Z,00000200,01000000,0001.78,0001.87,0000.86,0000.38,0000.23,0000.09,0000.29,0000.52,0000.30,18.7,25.1,,00.0,0656.9,31.0
2021-09-21T05:54:00Z,00000200,01000000,0002.04,0001.61,0001.22,0000.59,0000.35,0000.33,0000.74,0000.43,0000.32,18.8,25.1,,00.0,0656.9,31.0
2021-09-21T05:55:00Z,00000200,01000000,0002.42,0001.59,0000.89,0000.28,0000.31,0000.15,0000.57,0000.52,0000.61,18.8,25.1,,00.0,0656.9,31.0
2021-09-21T05:56:00Z,00000200,01000000,0002.24,0001.51,0000.68,0000.17,0000.05,0000.28,0000.64,0000.91,0000.38,18.9,25.1,,00.0,0656.9,31.0
2021-09-21T05:57:00Z,00000200,41000000,,,,,,,-000.50,-000.51,0000.10,18.9,25.1,,00.0,0656.9,31.0
2021-09-21T05:58:00Z,00000200,61000000,,,,,,,0000.05,0000.39,-000.31,18.5,25.3,,00.0,0655.9,31.0
2021-09-21T05:59:00Z,00000200,21000000,,,,,,,-000.03,0000.19,0000.35,18.5,25.4,,00.0,0655.9,31.0
